time_stamp(utc),avg(mph),gust(mph),direction(deg),12m_air_temp(f),sonic_u(cm/s),sonic_v(cm/s),sonic_w(cm/s),pressure,2m_air_temp(f),pyranometer(W/m^2)
"2021-01-25 00:02:39+00",9.1,10.1,,32.2,-343,203,22,1021.32,31.9,0
"2021-01-25 00:07:39+00",9.1,10.1,,32.2,-343,224,18,1021.25,31.8,0
"2021-01-25 00:12:39+00",8.7,10.7,,32.1,-345,179,28,1021.35,31.8,0
"2021-01-25 00:17:39+00",10.1,12.1,,32.2,-408,207,19,1021.56,31.7,0
"2021-01-25 00:22:39+00",10.4,12.4,,32.3,-433,168,26,1021.69,31.8,0
"2021-01-25 00:27:39+00",10.5,12.5,,32.3,-450,153,22,1021.69,31.9,0
"2021-01-25 00:32:39+00",10.9,12.9,,32.3,-407,252,9,1021.39,31.8,0
"2021-01-25 00:37:39+00",10.0,11.0,,32.3,-386,242,27,1021.35,31.8,0
"2021-01-25 00:42:39+00",9.4,11.4,,32.4,-370,229,29,1021.39,31.8,0
"2021-01-25 00:47:39+00",12.6,13.6,,32.4,-520,252,12,1021.44,31.9,0
"2021-01-25 00:52:39+00",11.2,12.2,,32.4,-443,227,26,1021.32,31.9,0
"2021-01-25 00:57:39+00",11.8,14.8,,32.3,-510,213,19,1021.51,31.8,0
"2021-01-25 01:02:39+00",10.4,12.4,,32.3,-444,154,26,1021.47,31.8,0
"2021-01-25 01:07:39+00",11.1,13.1,,32.4,-488,148,28,1021.38,31.8,0
"2021-01-25 01:12:39+00",11.2,13.2,,32.2,-469,201,36,1021.25,31.8,0
"2021-01-25 01:17:39+00",11.1,13.1,,32.3,-440,247,31,1021.17,31.7,0
"2021-01-25 01:22:39+00",10.2,11.2,,32.1,-401,174,16,1021.2,31.6,0
"2021-01-25 01:27:39+00",9.6,11.6,,32.2,-431,76,33,1021.24,31.6,0
"2021-01-25 01:32:39+00",11.0,13.0,,32.1,-474,176,17,1021.25,31.6,0
"2021-01-25 01:37:39+00",12.3,13.3,,32.2,-518,195,20,1021.25,31.6,0
"2021-01-25 01:42:39+00",12.1,13.1,,32.2,-526,207,27,1021.25,31.6,0
"2021-01-25 01:47:39+00",9.7,11.7,,32.2,-385,203,8,1021,31.5,0
"2021-01-25 01:52:39+00",11.9,14.9,,32.2,-464,255,31,1021.2,31.5,0
"2021-01-25 01:57:39+00",11.8,12.8,,32.1,-466,234,24,1021.25,31.5,0
"2021-01-25 02:02:39+00",9.3,10.3,,32,-376,185,26,1021.13,31.5,0
"2021-01-25 02:07:39+00",11.9,13.9,,32,-501,240,31,1021.13,31.3,0
"2021-01-25 02:12:39+00",10.4,12.4,,31.9,-391,231,36,1021.25,31.3,0
"2021-01-25 02:17:39+00",9.7,10.7,,32,-373,229,21,1021.23,31.3,0
"2021-01-25 02:22:39+00",8.6,10.6,,31.9,-330,214,16,1020.99,31.2,0
"2021-01-25 02:27:39+00",7.2,8.2,,31.7,-257,192,27,1020.95,31.1,0
"2021-01-25 02:32:39+00",8.1,9.1,,31.7,-295,206,17,1020.95,31.1,0
"2021-01-25 02:37:39+00",7.7,8.7,,31.6,-291,186,15,1020.99,31,0
"2021-01-25 02:42:39+00",7.0,7.0,,31.5,-273,144,14,1021.03,31,0
"2021-01-25 02:47:39+00",6.1,7.1,,31.5,-208,158,12,1021.01,30.9,0
"2021-01-25 02:52:39+00",5.9,6.9,,31.5,-216,151,15,1020.98,30.8,0
"2021-01-25 02:57:39+00",5.1,6.1,,31.5,-180,135,14,1021.12,30.7,0
"2021-01-25 03:02:39+00",5.2,6.2,,31.4,-168,161,2,1021.16,30.6,0
"2021-01-25 03:07:39+00",5.3,5.3,,31.3,-151,168,12,1021.19,30.5,0
"2021-01-25 03:12:39+00",6.6,7.6,,31.5,-213,194,13,1021.28,30.4,0
"2021-01-25 03:17:39+00",7.8,8.8,,31.6,-244,238,5,1021.15,30.5,0
"2021-01-25 03:22:39+00",8.2,9.2,,31.7,-266,237,23,1021.17,30.7,0
"2021-01-25 03:27:39+00",9.0,11.0,,31.9,-320,261,23,1021.23,30.9,0
"2021-01-25 03:32:39+00",8.8,9.8,,31.9,-309,233,20,1021.18,31,0
"2021-01-25 03:37:39+00",10.2,11.2,,31.9,-347,296,21,1021.17,31.1,0
"2021-01-25 03:42:39+00",8.3,9.3,,31.8,-285,232,29,1021.28,31.1,0
"2021-01-25 03:47:39+00",8.8,9.8,,31.7,-312,248,21,1021.17,31,0
"2021-01-25 03:52:39+00",9.5,10.5,,31.7,-352,230,24,1021.21,30.9,0
"2021-01-25 03:57:39+00",10.5,12.5,,31.7,-379,275,12,1021.23,30.9,0
"2021-01-25 04:02:39+00",10.0,12.0,,31.7,-355,252,19,1021.24,31,0
"2021-01-25 04:07:39+00",9.5,10.5,,31.7,-334,272,28,1021.21,31.1,0
"2021-01-25 04:12:39+00",9.3,10.3,,31.6,-329,246,22,1021.18,31.1,0
"2021-01-25 04:17:39+00",9.9,10.9,,31.5,-361,268,19,1021.17,31,0
"2021-01-25 04:22:39+00",8.9,9.9,,31.5,-312,242,25,1021.08,31,0
"2021-01-25 04:27:39+00",8.1,10.1,,31.4,-289,223,26,1021.14,31,0
"2021-01-25 04:32:39+00",9.5,10.5,,31.5,-333,266,23,1021.11,31,0
"2021-01-25 04:37:39+00",7.9,8.9,,31.4,-275,208,11,1021.01,30.9,0
"2021-01-25 04:42:39+00",8.9,9.9,,31.4,-313,239,26,1021.03,30.9,0
"2021-01-25 04:47:39+00",7.7,9.7,,31.3,-310,185,26,1020.97,30.8,0
"2021-01-25 04:52:39+00",8.8,9.8,,31.5,-331,210,22,1021.06,30.9,0
"2021-01-25 04:57:39+00",11.1,12.1,,31.6,-417,278,27,1020.99,30.9,0
"2021-01-25 05:02:39+00",11.1,12.1,,31.6,-436,265,11,1021.02,31,0
"2021-01-25 05:07:39+00",11.6,12.6,,31.6,-447,278,13,1021.1,31,0
"2021-01-25 05:12:39+00",11.8,13.8,,31.6,-427,299,24,1021.02,31,0
"2021-01-25 05:17:39+00",10.8,11.8,,31.5,-368,303,24,1020.96,31,0
"2021-01-25 05:22:39+00",10.2,12.2,,31.4,-377,272,31,1020.92,31,0
"2021-01-25 05:27:39+00",10.3,11.3,,31.4,-360,282,15,1020.99,30.9,0
"2021-01-25 05:32:39+00",10.9,12.9,,31.3,-344,328,15,1020.78,30.9,0
"2021-01-25 05:37:39+00",11.3,12.3,,31.3,-392,321,23,1020.88,30.8,0
"2021-01-25 05:42:39+00",10.8,11.8,,31.3,-377,303,19,1020.87,30.8,0
"2021-01-25 05:47:39+00",11.7,12.7,,31.3,-425,310,15,1020.77,30.8,0
"2021-01-25 05:52:39+00",11.8,12.8,,31.3,-397,362,24,1020.86,30.8,0
"2021-01-25 05:57:39+00",11.3,12.3,,31.3,-406,304,26,1020.93,30.8,0
"2021-01-25 06:02:39+00",10.9,12.9,,31.2,-379,309,32,1020.75,30.7,0
"2021-01-25 06:07:39+00",11.6,12.6,,31.3,-409,328,26,1020.75,30.7,0
"2021-01-25 06:12:39+00",10.7,11.7,,31.2,-356,307,33,1020.65,30.7,0
"2021-01-25 06:17:39+00",10.7,12.7,,31.2,-322,337,21,1020.64,30.6,0
"2021-01-25 06:22:39+00",11.7,13.7,,31.1,-397,355,30,1020.62,30.6,0
"2021-01-25 06:27:39+00",11.5,13.5,,31.1,-351,392,20,1020.52,30.5,0
"2021-01-25 06:32:39+00",9.5,10.5,,31,-267,327,15,1020.35,30.5,0
"2021-01-25 06:37:39+00",10.8,11.8,,31.1,-321,360,12,1020.34,30.4,0
"2021-01-25 06:42:39+00",10.2,11.2,,31.1,-340,299,32,1020.5,30.5,0
"2021-01-25 06:47:39+00",12.5,13.5,,31.2,-452,343,34,1020.47,30.6,0
"2021-01-25 06:52:39+00",10.5,12.5,,31.2,-357,308,30,1020.55,30.7,0
"2021-01-25 06:57:39+00",9.5,11.5,,31.1,-390,186,13,1020.65,30.7,0
"2021-01-25 07:02:39+00",10.1,12.1,,31.1,-400,217,13,1020.76,30.7,0
"2021-01-25 07:07:39+00",10.3,11.3,,31.1,-390,252,29,1020.56,30.7,0
"2021-01-25 07:12:39+00",11.6,13.6,,31.1,-416,298,20,1020.57,30.7,0
"2021-01-25 07:17:39+00",11.8,13.8,,31.1,-400,329,15,1020.52,30.7,0
"2021-01-25 07:22:39+00",10.9,11.9,,31,-391,284,25,1020.45,30.7,0
"2021-01-25 07:27:39+00",9.8,11.8,,31,-348,271,20,1020.33,30.7,0
"2021-01-25 07:32:39+00",10.4,12.4,,31,-378,260,11,1020.32,30.7,0
"2021-01-25 07:37:39+00",9.1,10.1,,31,-373,181,12,1020.3,30.7,0
"2021-01-25 07:42:39+00",12.5,13.5,,31,-485,291,22,1020.35,30.7,0
"2021-01-25 07:47:39+00",10.5,12.5,,31,-412,212,25,1020.38,30.7,0
"2021-01-25 07:52:39+00",11.3,12.3,,31,-437,259,24,1020.43,30.7,0
"2021-01-25 07:57:39+00",8.9,9.9,,31,-370,193,24,1020.5,30.7,0
"2021-01-25 08:02:39+00",11.0,13.0,,30.9,-449,229,22,1020.43,30.7,0
"2021-01-25 08:07:39+00",11.7,14.7,,31,-472,243,33,1020.67,30.7,0
"2021-01-25 08:12:39+00",11.2,13.2,,31,-480,210,18,1020.64,30.7,0
"2021-01-25 08:17:39+00",10.9,12.9,,31,-441,230,25,1020.64,30.7,0
"2021-01-25 08:22:39+00",12.1,13.1,,31,-511,181,26,1020.67,30.8,0
"2021-01-25 08:27:39+00",11.6,12.6,,31,-488,218,34,1020.77,30.8,0
"2021-01-25 08:32:39+00",8.7,10.7,,31,-340,189,44,1020.71,30.7,0
"2021-01-25 08:37:39+00",12.1,13.1,,31,-460,280,26,1020.58,30.8,0
"2021-01-25 08:42:39+00",10.7,12.7,,31,-424,247,34,1020.48,30.7,0
"2021-01-25 08:47:39+00",10.6,12.6,,31,-417,250,28,1020.41,30.7,0
"2021-01-25 08:52:39+00",11.2,12.2,,31,-377,313,19,1020.44,30.7,0
"2021-01-25 08:57:39+00",12.2,13.2,,30.8,-434,325,18,1020.43,30.7,0
"2021-01-25 09:02:39+00",10.6,12.6,,30.8,-382,259,34,1020.49,30.6,0
"2021-01-25 09:07:39+00",11.6,12.6,,30.8,-446,289,26,1020.46,30.6,0
"2021-01-25 09:12:39+00",10.0,11.0,,30.8,-346,283,33,1020.34,30.6,0
"2021-01-25 09:17:39+00",8.6,9.6,,30.8,-283,266,24,1020.12,30.6,0
"2021-01-25 09:22:39+00",8.7,10.7,,30.7,-246,289,26,1020.24,30.5,0
"2021-01-25 09:27:39+00",7.9,8.9,,30.6,-157,303,18,1020.01,30.4,0
"2021-01-25 09:32:39+00",8.2,10.2,,30.5,-147,320,-8,1020.21,30.3,0
"2021-01-25 09:37:39+00",7.3,8.3,,30.3,-146,280,17,1020.08,30.2,0
"2021-01-25 09:42:39+00",7.9,8.9,,30.3,-217,280,13,1020.16,30.1,0
"2021-01-25 09:47:39+00",6.6,7.6,,30.3,-162,231,10,1020.23,30.1,0
"2021-01-25 09:52:39+00",4.1,5.1,,30.3,-89,142,8,1020.33,30,0
"2021-01-25 09:57:39+00",3.3,4.3,,30.2,-44,124,15,1020.48,30,0
"2021-01-25 10:02:39+00",4.9,5.9,,30.2,-105,176,5,1020.32,29.9,0
"2021-01-25 10:07:39+00",5.8,6.8,,30.3,-191,173,12,1020.45,29.9,0
"2021-01-25 10:12:39+00",7.1,8.1,,30.3,-208,239,18,1020.51,29.9,0
"2021-01-25 10:17:39+00",8.7,9.7,,30.3,-215,315,15,1020.46,30,0
"2021-01-25 10:22:39+00",8.1,10.1,,30.3,-240,274,17,1020.55,30,0
"2021-01-25 10:27:39+00",8.3,9.3,,30.3,-273,250,20,1020.71,30,0
"2021-01-25 10:32:39+00",9.0,10.0,,30.3,-310,255,17,1020.76,30,0
"2021-01-25 10:37:39+00",8.5,9.5,,30.3,-225,296,17,1020.9,30.1,0
"2021-01-25 10:42:39+00",8.4,9.4,,30.3,-228,286,18,1020.88,30.1,0
"2021-01-25 10:47:39+00",8.2,9.2,,30.3,-205,290,24,1020.81,30,0
"2021-01-25 10:52:39+00",8.4,9.4,,30.3,-233,279,18,1020.74,30,0
"2021-01-25 10:57:39+00",8.0,10.0,,30.2,-209,279,14,1020.79,29.9,0
"2021-01-25 11:02:39+00",6.9,7.9,,30.1,-105,276,20,1020.7,29.9,0
"2021-01-25 11:07:39+00",7.4,9.4,,30,-54,321,5,1020.57,29.8,0
"2021-01-25 11:12:39+00",8.3,10.3,,29.9,-136,350,8,1020.59,29.7,0
"2021-01-25 11:17:39+00",8.6,9.6,,29.9,-139,355,10,1020.66,29.7,0
"2021-01-25 11:22:39+00",9.6,11.6,,29.8,-184,381,8,1020.94,29.6,0
"2021-01-25 11:27:39+00",7.3,9.3,,29.9,-117,302,7,1021.09,29.6,0
"2021-01-25 11:32:39+00",7.6,8.6,,29.9,-163,284,16,1021.16,29.5,0
"2021-01-25 11:37:39+00",7.0,8.0,,29.9,-188,226,12,1021.5,29.6,0
"2021-01-25 11:42:39+00",7.3,8.3,,30,-215,239,10,1021.53,29.6,0
"2021-01-25 11:47:39+00",7.3,8.3,,30.1,-143,282,10,1021.56,29.7,0
"2021-01-25 11:52:39+00",4.7,5.7,,30,-56,192,6,1021.48,29.7,0
"2021-01-25 11:57:39+00",6.1,7.1,,30,-82,251,2,1021.48,29.7,0
"2021-01-25 12:02:39+00",4.5,5.5,,29.9,-41,185,-4,1021.39,29.6,0
"2021-01-25 12:07:39+00",3.2,4.2,,29.7,-53,124,-4,1021.26,29.6,0
"2021-01-25 12:12:39+00",4.6,5.6,,29.7,-54,185,3,1021.3,29.5,0
"2021-01-25 12:17:39+00",5.3,6.3,,29.7,-98,208,9,1021.28,29.4,0
"2021-01-25 12:22:39+00",5.5,6.5,,29.7,-101,214,9,1021.29,29.4,0
"2021-01-25 12:27:39+00",6.4,7.4,,29.7,-155,231,-2,1021.29,29.4,0
"2021-01-25 12:32:39+00",6.9,7.9,,29.7,-156,259,19,1021.27,29.5,0
"2021-01-25 12:37:39+00",7.8,8.8,,29.7,-129,311,-1,1021.41,29.5,0
"2021-01-25 12:42:39+00",7.9,8.9,,29.6,-149,312,5,1021.34,29.5,0
"2021-01-25 12:47:39+00",8.4,8.4,,29.6,-214,294,19,1021.6,29.5,0
"2021-01-25 12:52:39+00",8.0,8.0,,29.6,-133,327,14,1021.51,29.5,0
"2021-01-25 12:57:39+00",6.6,7.6,,29.6,-104,269,26,1021.47,29.5,0
"2021-01-25 13:02:39+00",7.6,8.6,,29.6,-165,298,15,1021.43,29.5,0
"2021-01-25 13:07:39+00",8.8,9.8,,29.5,-186,343,15,1021.17,29.6,0
"2021-01-25 13:12:39+00",9.2,10.2,,29.5,-168,366,5,1021.28,29.6,0
"2021-01-25 13:17:39+00",7.8,9.8,,29.5,-145,316,9,1021.4,29.6,0
"2021-01-25 13:22:39+00",6.1,7.1,,29.5,-135,231,21,1021.32,29.6,0
"2021-01-25 13:27:39+00",8.1,9.1,,29.5,-212,284,11,1021.3,29.6,0
"2021-01-25 13:32:39+00",8.0,9.0,,29.5,-157,301,15,1021.32,29.7,0
"2021-01-25 13:37:39+00",6.7,7.7,,29.6,-200,229,29,1021.42,29.7,0
"2021-01-25 13:42:39+00",6.6,7.6,,29.7,-169,236,33,1021.18,29.8,0
"2021-01-25 13:47:39+00",7.5,8.5,,29.6,-236,230,14,1021.25,29.9,0
"2021-01-25 13:52:39+00",8.4,8.4,,29.6,-234,275,3,1021.13,29.9,0
"2021-01-25 13:57:39+00",8.4,9.4,,29.6,-247,269,12,1021.15,29.9,0
"2021-01-25 14:02:39+00",8.1,9.1,,29.6,-206,292,14,1020.92,30,0
"2021-01-25 14:07:39+00",8.1,9.1,,29.7,-234,268,15,1020.95,30.1,0
"2021-01-25 14:12:39+00",7.4,8.4,,29.8,-221,250,17,1020.83,30.2,0
"2021-01-25 14:17:39+00",7.2,8.2,,30,-233,216,55,1020.89,30.4,0
"2021-01-25 14:22:39+00",7.8,8.8,,29.9,-246,238,8,1021.02,30.6,0
"2021-01-25 14:27:39+00",7.7,7.7,,30.1,-252,226,8,1021.05,30.7,0
"2021-01-25 14:32:39+00",7.0,8.0,,30.2,-250,188,12,1021.27,30.8,0
"2021-01-25 14:37:39+00",5.8,6.8,,30.4,-193,156,48,1021.24,30.9,0
"2021-01-25 14:42:39+00",7.2,8.2,,30.4,-217,224,5,1021.41,31,0
"2021-01-25 14:47:39+00",7.0,8.0,,30.5,-263,175,21,1021.4,31.1,0
"2021-01-25 14:52:39+00",6.6,7.6,,30.6,-232,165,14,1021.41,31.2,0
"2021-01-25 14:57:39+00",7.1,7.1,,30.6,-262,176,6,1021.43,31.3,0
"2021-01-25 15:02:39+00",7.4,8.4,,30.7,-261,196,8,1021.42,31.4,0
"2021-01-25 15:07:39+00",7.6,8.6,,30.8,-253,214,20,1021.28,31.5,0
"2021-01-25 15:12:39+00",7.7,8.7,,31,-241,239,2,1021.09,31.6,0
"2021-01-25 15:17:39+00",6.0,8.0,,31.2,-140,230,28,1020.59,31.7,0
"2021-01-25 15:22:39+00",7.1,8.1,,31.4,-197,261,16,1020.8,32,0
"2021-01-25 15:27:39+00",8.2,9.2,,31.5,-196,294,6,1020.87,32.2,0
"2021-01-25 15:32:39+00",8.0,9.0,,31.6,-223,262,14,1020.67,32.4,0
"2021-01-25 15:37:39+00",6.1,7.1,,31.7,-168,202,15,1020.71,32.5,0
"2021-01-25 15:42:39+00",6.8,7.8,,31.9,-202,222,9,1020.56,32.7,0
"2021-01-25 15:47:39+00",6.3,9.3,,32.2,-130,247,19,1020.58,32.9,0
"2021-01-25 15:52:39+00",4.4,5.4,,32.5,-84,145,41,1020.6,33.2,0
"2021-01-25 15:57:39+00",5.3,6.3,,32.5,-168,157,11,1020.35,33.4,0
"2021-01-25 16:02:39+00",6.0,7.0,,32.5,-116,228,8,1020.35,33.6,0
"2021-01-25 16:07:39+00",4.9,5.9,,32.7,18,198,-8,1020.11,33.8,0
"2021-01-25 16:12:39+00",5.4,6.4,,32.9,-78,225,4,1020.18,34.2,0
"2021-01-25 16:17:39+00",6.5,7.5,,33.1,-21,273,-7,1020.21,34.5,0
"2021-01-25 16:22:39+00",6.8,7.8,,33,-6,292,-2,1020.37,34.7,0
"2021-01-25 16:27:39+00",6.3,7.3,,33.2,-61,262,14,1020.56,34.9,0
"2021-01-25 16:32:39+00",7.6,8.6,,33.3,-93,312,-11,1020.64,34.9,0
"2021-01-25 16:37:39+00",5.6,6.6,,33.4,-115,201,-8,1020.68,34.9,0
"2021-01-25 16:42:39+00",5.9,6.9,,33.6,-80,231,0,1020.75,34.9,0
"2021-01-25 16:47:39+00",5.0,6.0,,33.8,-160,144,33,1020.7,35,0
"2021-01-25 16:52:39+00",7.0,7.0,,33.6,-311,44,4,1020.62,35.1,0
"2021-01-25 16:57:39+00",7.2,7.2,,33.6,-286,143,13,1020.5,35.3,0
"2021-01-25 17:02:39+00",6.3,7.3,,33.7,-282,34,25,1020.22,35.3,0
"2021-01-25 17:07:39+00",6.5,7.5,,33.7,-262,105,-3,1020.14,35.5,0
"2021-01-25 17:12:39+00",5.9,7.9,,33.8,-236,132,4,1019.84,35.7,0
"2021-01-25 17:17:39+00",5.0,6.0,,33.7,-179,100,17,1019.7,35.7,0
"2021-01-25 17:22:39+00",6.4,7.4,,33.7,-280,43,12,1019.64,35.8,0
"2021-01-25 17:27:39+00",6.5,7.5,,33.7,-273,46,5,1019.67,36.1,0
"2021-01-25 17:32:39+00",7.1,8.1,,33.7,-315,18,8,1019.54,36.2,0
"2021-01-25 17:37:39+00",7.4,8.4,,33.7,-322,80,4,1019.5,36.3,0
"2021-01-25 17:42:39+00",6.3,7.3,,33.6,-265,63,-10,1019.17,36.2,0
"2021-01-25 17:47:39+00",6.2,7.2,,33.8,-258,95,29,1019.04,36.3,0
"2021-01-25 17:52:39+00",6.9,8.9,,33.8,-314,41,17,1019.04,36.4,0
"2021-01-25 17:57:39+00",6.8,8.8,,33.9,-289,23,49,1018.95,36.6,0
"2021-01-25 18:02:39+00",6.9,7.9,,33.9,-297,72,16,1019.02,36.7,0
"2021-01-25 18:07:39+00",7.1,8.1,,34,-324,30,37,1019.18,36.7,0
"2021-01-25 18:12:39+00",8.3,9.3,,34,-366,84,8,1019.17,36.8,0
"2021-01-25 18:17:39+00",7.9,8.9,,34.1,-359,57,13,1019.25,36.7,0
"2021-01-25 18:22:39+00",7.9,8.9,,34.2,-345,25,26,1019.2,36.8,0
"2021-01-25 18:27:39+00",6.8,7.8,,34.4,-298,-35,31,1019.05,36.9,0
"2021-01-25 18:32:39+00",6.4,7.4,,34.6,-286,15,38,1018.8,37,0
"2021-01-25 18:37:39+00",7.1,7.1,,34.5,-310,39,-1,1018.8,37.1,0
"2021-01-25 18:42:39+00",6.3,7.3,,34.6,-253,102,-8,1018.73,37.2,0
"2021-01-25 18:47:39+00",5.7,6.7,,34.8,-233,73,7,1018.66,37.3,0
"2021-01-25 18:52:39+00",5.9,6.9,,34.8,-261,-2,0,1018.43,37.4,0
"2021-01-25 18:57:39+00",5.3,6.3,,34.8,-223,40,13,1018.49,37.5,0
"2021-01-25 19:02:39+00",5.8,6.8,,35,-233,100,8,1018.43,37.5,0
"2021-01-25 19:07:39+00",5.7,6.7,,35.1,-252,54,13,1018.67,37.5,0
"2021-01-25 19:12:39+00",6.5,7.5,,35.3,-243,143,36,1018.78,37.5,0
"2021-01-25 19:17:39+00",6.8,7.8,,35.3,-260,151,6,1018.9,37.3,0
"2021-01-25 19:22:39+00",6.1,7.1,,35.4,-243,135,35,1018.79,37.1,0
"2021-01-25 19:27:39+00",6.3,6.3,,35.5,-226,166,16,1018.75,36.9,0
"2021-01-25 19:32:39+00",6.0,7.0,,35.6,-204,175,14,1018.72,36.7,0
"2021-01-25 19:37:39+00",5.4,6.4,,35.6,-191,132,13,1018.8,36.6,0
"2021-01-25 19:42:39+00",5.9,6.9,,35.7,-239,127,15,1018.81,36.5,0
"2021-01-25 19:47:39+00",6.3,7.3,,35.8,-227,149,39,1018.86,36.5,0
"2021-01-25 19:52:39+00",6.6,8.6,,36,-224,196,23,1018.85,36.6,0
"2021-01-25 19:57:39+00",7.4,8.4,,36,-280,185,10,1018.76,36.6,0
"2021-01-25 20:02:39+00",7.5,8.5,,36,-257,212,7,1018.72,36.6,0
"2021-01-25 20:07:39+00",7.8,8.8,,36.1,-259,230,42,1018.8,36.5,0
"2021-01-25 20:12:39+00",8.7,9.7,,36,-285,266,19,1018.88,36.4,0
"2021-01-25 20:17:39+00",7.4,8.4,,36.1,-244,222,11,1018.89,36.4,0
"2021-01-25 20:22:39+00",7.5,8.5,,36.1,-233,230,18,1018.86,36.3,0
"2021-01-25 20:27:39+00",6.9,7.9,,36.1,-206,238,11,1018.84,36.3,0
"2021-01-25 20:32:39+00",7.9,8.9,,36.1,-221,257,9,1018.72,36.3,0
"2021-01-25 20:37:39+00",5.2,6.2,,36.2,-107,201,47,1018.77,36.2,0
"2021-01-25 20:42:39+00",6.9,7.9,,36.2,-195,232,7,1018.63,36.3,0
"2021-01-25 20:47:39+00",7.7,8.7,,36.2,-160,292,13,1018.78,36.3,0
"2021-01-25 20:52:39+00",6.3,7.3,,36.2,-185,200,20,1018.73,36.2,0
"2021-01-25 20:57:39+00",7.1,8.1,,36.2,-192,256,17,1018.75,36.2,0
"2021-01-25 21:02:39+00",5.1,6.1,,36.1,-137,170,6,1018.74,36.2,0
"2021-01-25 21:07:39+00",4.6,5.6,,36.1,-134,141,15,1018.76,36.2,0
"2021-01-25 21:12:39+00",4.7,4.7,,36.2,-115,166,8,1018.5,36.2,0
"2021-01-25 21:17:39+00",5.0,6.0,,36.1,-196,97,10,1018.48,36.2,0
"2021-01-25 21:22:39+00",4.4,4.4,,36.1,-175,87,11,1018.5,36.2,0
"2021-01-25 21:27:39+00",4.9,5.9,,36.1,-168,124,17,1018.53,36.2,0
"2021-01-25 21:32:39+00",4.5,5.5,,36.1,-165,103,13,1018.38,36.2,0
"2021-01-25 21:37:39+00",5.4,5.4,,36.1,-207,112,11,1018.42,36.1,0
"2021-01-25 21:42:39+00",5.5,6.5,,36.1,-183,150,13,1018.57,36.1,0
"2021-01-25 21:47:39+00",6.3,7.3,,36.1,-215,179,17,1018.58,36,0
"2021-01-25 21:52:39+00",4.2,5.2,,36.1,-147,108,14,1018.28,35.9,0
"2021-01-25 21:57:39+00",3.8,4.8,,36,-95,129,9,1018.33,35.8,0
"2021-01-25 22:02:39+00",3.3,4.3,,36,-72,110,5,1018.32,35.8,0
"2021-01-25 22:07:39+00",4.4,5.4,,36,-138,124,5,1018.44,35.7,0
"2021-01-25 22:12:39+00",5.7,6.7,,35.9,-188,166,5,1018.31,35.6,0
"2021-01-25 22:17:39+00",6.3,6.3,,35.9,-213,182,14,1018.36,35.4,0
"2021-01-25 22:22:39+00",5.1,6.1,,35.9,-164,149,8,1018.43,35.3,0
"2021-01-25 22:27:39+00",5.8,6.8,,35.8,-183,181,13,1018.62,35.2,0
"2021-01-25 22:32:39+00",7.0,7.0,,35.8,-222,220,13,1018.95,35,0
"2021-01-25 22:37:39+00",6.9,7.9,,35.8,-212,214,18,1019.05,34.9,0
"2021-01-25 22:42:39+00",6.4,7.4,,35.9,-211,200,11,1019.15,35,0
"2021-01-25 22:47:39+00",6.7,7.7,,35.9,-232,183,14,1019.1,35.1,0
"2021-01-25 22:52:39+00",6.5,7.5,,35.9,-239,158,14,1019.43,35.2,0
"2021-01-25 22:57:39+00",5.2,6.2,,35.8,-156,179,20,1019.38,35.2,0
"2021-01-25 23:02:39+00",5.6,6.6,,35.7,-132,196,9,1019.25,35.2,0
"2021-01-25 23:07:39+00",5.1,6.1,,35.6,-83,200,4,1019.08,35.1,0
"2021-01-25 23:12:39+00",5.3,6.3,,35.4,-61,226,1,1019.04,35,0
"2021-01-25 23:17:39+00",5.7,5.7,,35.1,-43,248,2,1018.96,34.8,0
"2021-01-25 23:22:39+00",5.7,6.7,,35,-28,241,0,1018.73,34.7,0
"2021-01-25 23:27:39+00",5.4,6.4,,34.8,16,233,-2,1018.67,34.5,0
"2021-01-25 23:32:39+00",6.0,7.0,,34.7,32,248,-3,1018.41,34.2,0
"2021-01-25 23:37:39+00",6.0,7.0,,34.6,39,250,-1,1018.35,33.9,0
"2021-01-25 23:42:39+00",5.1,6.1,,34.6,25,208,0,1018.34,33.8,0
"2021-01-25 23:47:39+00",4.7,4.7,,34.6,7,197,0,1018.41,33.8,0
"2021-01-25 23:52:39+00",4.9,5.9,,34.6,61,191,0,1018.14,33.7,0
"2021-01-25 23:57:39+00",4.8,4.8,,34.6,84,187,-1,1018.18,33.6,0
